Theta_e
336 338 334 339 339 339 339 340 340 339 339 340 340 340 340 340 340 339 338 337 336 338 341 339 341 341 340 340 339 337 335 334 334 335 336 338 339 339 338 337 336 338 337
336 338 334 339 340 339 339 339 338 337 336 338 339 339 340 340 339 339 338 337 337 337 339 340 340 340 339 337 337 336 335 335 334 335 336 336 337 338 338 337 336 336 335
336 338 335 339 339 338 337 337 337 334 335 337 337 337 339 338 337 337 337 336 336 337 339 339 339 337 334 336 335 335 335 335 335 335 336 337 337 338 337 334 335 336 336
335 338 336 336 338 338 336 336 334 333 332 334 334 334 334 335 336 336 336 335 335 335 336 336 332 332 334 333 334 334 334 334 335 335 336 337 337 337 337 338 337 336 335
337 338 335 335 336 336 335 333 333 332 333 334 333 333 333 336 335 335 333 327 325 324 329 331 330 332 333 332 330 329 330 333 333 333 333 333 333 334 334 334 332 332 332
337 337 334 334 333 333 333 333 334 333 334 333 332 333 333 334 334 333 326 326 325 324 324 328 329 331 332 331 330 329 328 327 328 329 331 331 331 333 333 333 333 332 332
337 337 335 333 333 332 332 333 333 333 334 333 333 332 334 334 333 330 326 325 325 324 324 324 328 329 331 330 329 329 330 330 331 332 332 332 331 331 331 331 331 331 330
336 336 335 333 332 333 334 333 333 333 334 333 332 333 334 334 333 331 326 325 325 325 325 325 326 329 329 329 329 329 330 329 329 330 329 328 331 331 331 331 329 329 329
335 336 336 333 331 332 333 333 333 332 332 333 331 331 331 331 329 327 326 325 325 325 325 325 325 326 328 327 328 327 327 327 326 327 326 325 329 330 329 328 327 327 327
335 336 335 335 333 332 332 332 332 332 330 333 331 325 324 324 324 324 324 325 325 325 325 326 325 325 326 326 327 327 327 326 326 325 324 322 325 327 326 324 325 326 326
335 335 335 335 335 331 331 330 329 329 329 330 327 326 325 325 324 324 325 325 325 325 327 327 327 326 326 325 324 326 327 325 325 325 323 321 324 325 323 320 320 323 324
336 335 335 334 334 333 332 331 329 327 327 326 327 327 326 324 324 325 326 326 325 326 326 325 326 326 325 325 323 322 324 324 324 323 321 320 321 323 321 317 316 317 320
335 335 334 333 333 333 331 331 329 327 327 328 327 327 326 325 324 324 325 325 324 324 324 324 322 322 323 322 322 321 321 321 321 321 320 320 319 319 320 318 315 315 318
334 333 332 331 332 333 332 331 330 328 328 328 327 326 326 325 324 324 324 324 324 323 323 322 322 321 320 319 318 318 318 318 318 319 319 319 318 317 316 316 315 316 317
333 332 331 330 330 331 331 330 329 328 328 328 327 328 326 325 325 324 324 324 323 323 322 322 321 318 317 316 314 315 315 314 314 316 317 317 317 316 315 314 316 317 317
331 331 331 330 330 329 328 328 328 329 328 328 326 326 325 326 325 324 324 324 323 323 322 321 320 319 316 314 313 312 311 311 312 311 312 314 315 315 315 314 314 316 317
331 331 330 330 331 329 328 328 327 327 327 327 327 326 325 324 324 322 324 324 324 324 322 322 321 318 315 313 312 311 311 310 309 309 309 310 311 312 313 313 313 314 316
330 331 331 331 330 329 328 328 327 327 325 326 327 327 325 325 323 323 323 324 323 324 323 321 319 317 316 313 313 313 313 312 310 310 309 309 309 309 309 309 311 311 311
331 331 331 331 329 328 327 326 326 326 327 327 327 325 326 324 323 323 323 323 322 323 321 320 318 317 315 314 315 314 314 312 311 310 310 309 308 308 308 308 308 309 309
331 332 332 331 329 328 327 326 326 327 327 327 327 325 325 323 323 323 323 322 322 321 320 319 318 316 315 315 316 315 310 310 310 310 310 309 308 311 312 311 310 311 311
331 332 332 330 329 328 327 325 326 326 326 326 326 324 324 322 322 324 323 323 321 320 319 319 318 317 316 316 316 314 311 310 311 311 309 309 310 311 311 310 311 311 311
330 331 331 330 329 329 327 327 327 327 326 326 325 323 322 322 322 324 324 322 321 320 319 318 317 316 315 314 313 311 307 311 310 311 310 311 311 310 306 306 307 306 305
330 330 330 330 330 329 329 328 328 327 326 325 325 323 322 323 324 324 323 322 319 318 318 317 315 315 314 313 313 312 308 308 308 312 310 311 307 306 303 304 302 298 301
330 331 331 329 330 330 329 329 328 326 325 325 325 323 323 324 325 324 322 320 318 318 316 315 315 314 314 313 313 312 312 312 307 307 310 307 309 301 301 303 296 297 301
330 331 330 328 328 330 329 329 328 326 325 325 325 324 325 325 324 322 321 319 317 316 315 314 314 313 312 311 308 308 307 309 309 307 305 307 305 304 304 296 297 298 296
327 329 330 329 327 329 329 328 327 326 325 325 325 325 324 323 321 320 318 318 316 315 312 310 310 311 310 308 309 309 308 308 307 307 305 305 303 301 296 301 298 296 299
Wind_Speed
17 17 16 17 16 17 18 19 20 20 20 22 22 22 23 23 23 22 22 22 22 21 21 23 22 22 21 21 21 22 21 21 21 21 21 20 21 20 21 22 22 22 21
23 20 18 18 19 19 19 20 21 21 20 21 21 21 22 22 22 21 22 22 21 21 21 22 21 20 19 18 17 19 20 21 20 20 20 21 20 21 21 23 21 20 21
24 21 20 19 20 20 20 21 23 20 22 21 21 21 20 21 21 21 21 21 20 21 21 21 20 19 19 18 17 18 18 19 19 20 21 21 20 19 18 20 20 20 20
25 23 21 21 21 20 20 21 21 23 22 21 21 20 19 20 19 19 19 19 19 20 20 20 21 21 20 20 20 20 19 19 21 23 24 22 21 19 20 20 20 19 19
27 24 22 21 21 21 21 21 22 22 21 20 19 19 19 18 18 17 18 20 21 21 20 20 21 21 21 21 19 19 18 17 18 19 19 18 19 18 18 16 16 16 16
27 25 22 22 22 23 22 22 22 21 20 20 19 18 17 17 17 17 18 18 18 19 19 18 18 19 18 17 17 18 18 16 15 18 20 19 17 15 16 15 16 15 14
27 25 24 23 23 22 21 21 22 21 20 19 18 17 16 16 15 16 16 16 17 17 17 17 16 17 17 16 15 14 15 15 15 17 17 18 15 14 14 13 13 12 11
27 24 23 22 23 22 20 19 20 21 19 18 16 16 15 15 14 14 15 15 15 15 15 15 15 16 16 15 13 11 13 13 13 13 12 11 12 12 11 11 11 10 9
26 24 23 22 22 20 19 19 19 19 19 18 14 14 15 14 14 13 13 13 14 14 14 14 14 13 13 12 10 9 8 9 11 11 10 9 10 9 9 10 10 9 8
25 23 23 22 22 22 19 18 19 18 19 17 14 14 13 12 12 12 13 13 13 13 13 13 13 13 12 12 11 8 7 8 9 10 10 9 8 8 8 9 9 8 8
26 24 23 23 22 22 20 18 17 17 17 16 14 14 13 12 12 12 13 13 12 12 12 10 9 8 9 10 10 9 6 6 7 8 9 8 7 7 8 8 8 7 7
21 25 24 24 23 22 21 19 18 17 17 16 15 13 12 11 12 12 13 12 11 9 8 8 7 7 7 7 8 7 4 4 4 5 7 7 7 7 7 8 8 8 7
24 26 25 24 24 23 21 20 18 17 17 16 13 10 11 11 13 11 10 9 7 7 7 6 7 6 6 5 4 5 4 3 3 4 5 5 7 7 7 7 8 8 8
29 28 26 24 24 22 21 19 18 18 18 15 12 10 6 9 9 9 7 5 7 6 7 6 5 5 4 4 4 3 4 5 5 4 4 5 7 8 9 8 9 9 9
31 29 27 26 24 22 21 20 19 18 17 14 12 11 8 6 6 6 5 7 6 5 3 2 3 4 3 3 4 3 4 5 5 5 6 6 7 8 8 9 9 9 9
31 30 29 27 25 22 20 20 19 17 14 12 12 9 7 7 8 7 8 6 4 2 2 2 3 4 4 4 5 5 5 5 5 6 6 6 7 7 8 9 10 11 11
32 30 31 29 26 21 20 19 16 15 14 14 13 10 10 8 8 6 4 3 3 2 2 2 3 5 5 6 6 7 7 7 6 6 6 7 8 8 9 10 11 12 13
32 31 28 28 25 21 20 18 17 16 15 13 14 12 12 8 8 6 5 6 3 1 2 3 4 5 6 8 9 9 9 8 5 4 4 6 8 8 9 10 11 13 14
33 33 30 30 27 22 20 18 16 17 18 16 14 13 12 8 7 7 5 5 2 3 1 2 4 6 7 9 10 9 10 5 2 2 4 6 8 10 12 12 12 14 16
34 34 33 30 27 25 21 18 19 18 19 18 15 14 11 9 8 7 7 6 3 2 0 2 4 6 7 12 11 8 7 9 10 7 5 7 9 13 15 15 15 15 17
36 36 34 32 30 29 27 24 23 21 20 19 15 14 13 11 10 10 8 5 3 1 0 2 3 4 6 12 7 5 5 7 16 12 10 9 8 11 15 17 18 19 20
37 38 35 34 33 31 30 27 24 22 20 19 17 16 13 12 11 11 8 5 3 1 0 1 3 3 6 12 7 4 4 1 4 7 6 6 12 14 21 19 18 19 21
33 37 38 36 35 33 31 29 22 22 20 20 20 18 16 15 12 10 8 6 3 2 0 2 3 4 6 8 12 6 2 1 8 5 2 7 17 18 19 17 19 21 20
33 38 37 35 39 35 33 31 29 26 22 19 21 18 19 16 13 11 9 7 5 2 1 2 3 4 4 5 3 7 5 2 1 4 5 16 8 29 23 17 23 20 19
35 38 36 35 40 35 34 32 29 27 25 23 22 22 19 16 13 12 10 8 6 3 2 2 2 3 4 6 7 5 5 4 4 2 4 5 22 6 7 25 19 16 21
33 34 34 34 37 36 36 33 31 29 26 24 24 23 20 17 15 13 11 9 6 3 3 4 5 5 6 7 6 5 5 2 3 3 3 8 15 11 28 4 9 19 14
Wind_Direction
156 143 136 128 120 120 112 111 107 104 99 97 93 91 91 91 89 86 83 82 82 83 85 88 83 80 81 81 80 78 80 79 76 77 77 78 78 77 77 76 73 70 70
150 142 135 131 126 122 115 113 109 106 107 100 97 93 93 91 87 87 84 82 82 84 87 87 84 80 76 80 83 84 83 80 79 78 80 80 76 76 76 74 71 68 67
144 146 139 136 127 124 118 113 111 109 107 105 100 98 93 91 90 87 86 83 81 83 86 87 83 76 78 84 84 91 82 78 80 81 79 76 76 75 73 72 71 69 70
145 148 143 145 135 126 124 122 114 109 106 104 106 106 103 96 93 91 90 89 87 87 91 91 85 77 84 86 86 84 78 80 83 81 77 75 71 68 71 71 69 68 66
150 150 144 141 140 134 130 125 116 115 111 110 109 108 105 103 99 95 92 91 90 90 92 94 88 83 92 89 82 78 79 84 82 82 82 77 71 66 65 63 65 65 63
152 150 145 142 139 139 137 133 125 120 118 116 114 110 106 103 100 95 94 92 92 93 93 95 93 87 92 86 82 79 77 77 84 83 80 75 71 69 67 64 63 61 59
152 152 149 148 143 139 137 134 133 128 124 121 118 114 110 106 100 97 94 91 90 93 95 95 98 93 96 91 87 82 85 84 84 85 84 80 71 63 59 56 57 56 51
152 154 151 151 148 141 139 138 133 130 130 124 122 117 112 106 100 98 96 92 91 93 95 94 95 95 93 86 83 89 96 84 79 77 70 69 66 58 55 54 51 46 44
155 157 155 153 150 147 147 143 138 137 131 129 131 124 117 112 106 103 100 97 95 94 95 94 93 97 89 74 78 94 99 74 66 60 53 53 61 58 51 49 47 46 44
159 159 157 155 152 148 149 148 144 142 140 141 134 121 114 109 106 103 102 99 97 94 94 92 86 86 83 75 75 88 107 84 63 47 34 43 46 53 45 41 40 41 41
162 164 162 160 157 155 154 151 147 146 144 140 131 121 110 106 105 104 101 96 92 92 91 84 83 80 81 75 72 76 82 76 48 34 37 31 39 42 34 27 30 32 28
158 165 167 164 164 161 159 156 152 150 148 140 132 123 111 99 108 110 106 100 92 86 86 79 76 77 82 68 63 66 67 53 35 37 33 28 26 24 15 12 17 18 20
164 169 171 169 168 167 164 162 159 155 150 143 137 129 126 115 115 112 109 104 91 78 77 81 66 68 65 53 33 28 39 26 6 1 12 17 10 10 4 1 5 6 5
170 173 173 174 173 172 168 167 164 161 157 153 146 141 151 145 139 122 124 109 90 93 81 80 60 50 49 29 29 18 8 4 359 347 341 344 352 358 359 356 354 355 352
173 177 176 175 174 173 174 171 170 167 168 166 160 158 153 163 154 147 111 120 108 104 71 38 15 12 8 357 6 334 323 334 325 324 327 329 339 348 356 354 349 345 341
175 178 178 179 178 173 176 173 172 174 174 177 165 166 176 157 147 138 135 131 123 88 11 25 25 12 9 3 353 349 342 339 333 339 337 338 334 331 341 347 347 344 340
182 183 183 184 181 181 180 179 183 183 187 178 174 183 171 163 164 157 161 157 128 47 23 22 6 2 1 353 345 340 337 332 326 326 333 337 340 341 336 338 338 339 337
186 185 185 190 182 185 186 189 191 191 190 192 185 179 170 177 170 185 197 148 138 341 7 2 359 1 358 352 350 343 330 327 333 333 344 350 353 351 346 341 337 337 337
188 185 188 186 188 188 190 193 198 197 188 191 178 179 180 184 182 192 176 167 177 296 310 359 6 353 349 349 343 341 334 331 317 38 38 24 21 19 15 9 0 349 341
191 189 189 188 184 187 192 194 192 183 179 181 182 180 183 181 186 202 181 184 207 274 66 357 353 360 359 347 342 358 38 71 62 58 45 37 51 41 27 16 6 358 351
194 191 190 189 187 189 187 188 188 191 174 179 185 188 200 201 207 205 185 201 206 228 41 12 353 358 8 1 3 48 80 89 44 59 61 77 52 25 1 354 348 343 339
193 195 193 193 192 193 192 192 195 183 183 187 186 191 196 197 202 207 212 199 195 214 197 14 23 26 36 25 27 27 10 2 324 30 39 61 14 353 349 351 352 349 343
196 198 201 200 196 196 197 192 190 187 188 187 190 194 187 198 202 196 193 194 194 189 115 37 45 53 60 49 49 60 45 342 333 336 4 350 336 340 340 342 343 335 338
200 206 207 207 198 198 197 194 197 187 182 190 186 184 179 189 189 192 192 192 186 176 101 70 65 67 72 72 73 53 73 50 68 326 309 316 320 332 336 338 337 340 336
203 204 205 202 200 198 197 199 197 193 194 190 184 182 179 180 187 191 192 188 183 169 137 126 102 86 89 88 72 52 45 47 94 312 288 306 322 324 311 326 337 339 333
201 202 200 198 199 200 199 199 198 196 193 181 180 179 179 182 183 184 187 186 182 176 152 136 121 110 99 92 86 80 70 56 357 338 308 315 318 327 325 316 340 343 339